This is the latest recevied weather packets stored in our database for station/object KQ4PPF. If no packets are shown the sender has not sent any weather packets the latest 10 day(s).
| Time | Temp. | Humidity | Pressure | Rain* | Wind** | Luminosity | Snow |
|---|---|---|---|---|---|---|---|
| 1778083519 | 20° C | 98% | 1012.3 hPa | 0 mm | - | 648 W/m² | - |
| 1778083216 | 19.44° C | 99% | 1012.4 hPa | 0 mm | - | 289 W/m² | - |
| 1778082915 | 19.44° C | 99% | 1012.3 hPa | 0 mm | - | 169 W/m² | - |
| 1778081806 | 18.89° C | 99% | 1012.8 hPa | 0 mm | - | 170 W/m² | - |
| 1778081504 | 18.89° C | 99% | 1012.8 hPa | 0 mm | - | 231 W/m² | - |
| 1778081200 | 18.33° C | 99% | 1012.9 hPa | 0 mm | - | 159 W/m² | - |
| 1778080898 | 18.33° C | 99% | 1013.2 hPa | 0 mm | - | 145 W/m² | - |
| 1778080597 | 18.33° C | 99% | 1013.2 hPa | 0 mm | - | 163 W/m² | - |
| 1778080293 | 18.33° C | 99% | 1013.3 hPa | 0 mm | - | 147 W/m² | - |
| 1778079990 | 17.78° C | 99% | 1012.8 hPa | 0 mm | - | 143 W/m² | - |
| 1778079687 | 17.78° C | 99% | 1012.3 hPa | 0 mm | - | 81 W/m² | - |
| 1778079384 | 17.78° C | 99% | 1012.5 hPa | 0 mm | - | 54 W/m² | - |
| 1778079081 | 17.78° C | 99% | 1013.3 hPa | 0 mm | - | 41 W/m² | - |
| 1778078778 | 17.78° C | 99% | 1013.7 hPa | 0 mm | - | 19 W/m² | - |
| 1778078475 | 17.78° C | 99% | 1014.2 hPa | 0 mm | - | 13 W/m² | - |
| 1778078173 | 17.78° C | 99% | 1014.5 hPa | 0 mm | - | 12 W/m² | - |
| 1778077870 | 17.78° C | 99% | 1014.5 hPa | 0 mm | - | 10 W/m² | - |
| 1778077569 | 17.78° C | 99% | 1014.1 hPa | 0 mm | - | 11 W/m² | - |
| 1778077267 | 17.78° C | 99% | 1014.7 hPa | 0 mm | - | 5 W/m² | - |
| 1778076963 | 17.78° C | 99% | 1014 hPa | 0 mm | - | 7 W/m² | - |
| 1778076662 | 17.78° C | 99% | 1014.2 hPa | 0 mm | - | 8 W/m² | - |
| 1778076359 | 17.78° C | 99% | 1014 hPa | 0 mm | - | 12 W/m² | - |
| 1778076056 | 17.78° C | 99% | 1014.2 hPa | 0 mm | - | 2 W/m² | - |
| 1778075753 | 17.78° C | 98% | 1013.9 hPa | 0 mm | - | 4 W/m² | - |
| 1778075449 | 17.78° C | 98% | 1013.9 hPa | 0 mm | - | 5 W/m² | - |
* Rain latest hour (hover to see other rain measurements)
** Current wind speed in m/s (hover to see current wind gust speed)